Regional Weather Roundup
Issued by NWS Raleigh/Durham, NC

Home | Current Version | Previous Version | Text Only | Print | Product List | Glossary On
Versions: 1 2 3 4 5 6 7 8 9 10 11 12 13 14 15 16 17 18 19 20 21 22 23 24 25 26 27 28 29 30 31 32 33 34 35 36 37 38 39 40 41 42 43 44 45 46 47 48 49 50
000
ASUS42 KRAH 260610
RWRRAH
NORTH CAROLINA WEATHER ROUNDUP
NATIONAL WEATHER SERVICE RALEIGH NC
200 AM EDT MON JUN 26 2017

NOTE: "FAIR" INDICATES FEW OR NO CLOUDS BELOW 12,000 FEET WITH NO
SIGNIFICANT WEATHER AND/OR OBSTRUCTIONS TO VISIBILITY.

NCZ001-053-055-056-065-067-260700-
WESTERN NORTH CAROLINA

CITY           SKY/WX    TMP DP  RH WIND       PRES   REMARKS
ASHEVILLE      CLEAR     56  52  86 N3        30.22F
JEFFERSON      CLEAR     58  42  55 W6        30.23F
HICKORY        PTCLDY    63  59  87 NW7       30.17S
RUTHERFORDTON  NOT AVBL
MOUNT AIRY     CLEAR     58  53  81 CALM      30.19S
BOONE          NOT AVBL
$$

NCZ021-022-025-041-071-084-088-260700-
CENTRAL NORTH CAROLINA

CITY           SKY/WX    TMP DP  RH WIND       PRES   REMARKS
CHARLOTTE      PTCLDY    67  60  78 NW5       30.13F
GREENSBORO     CLEAR     66  56  70 NW5       30.14S
WINSTON-SALEM  CLEAR     65  53  65 CALM      30.16S
RALEIGH-DURHAM PTCLDY    68  62  81 CALM      30.10F
FORT BRAGG     PTCLDY    71  65  82 N3        30.08S
FAYETTEVILLE   MOCLDY    76  65  68 N3        30.08S
BURLINGTON     CLEAR     66  59  78 W3        30.12F
LAURINBURG     MOCLDY    74  67  78 CALM      30.10S
$$

NCZ011-015-027-028-043-044-047-080-103-260700-
NORTHEASTERN NORTH CAROLINA

CITY           SKY/WX    TMP DP  RH WIND       PRES   REMARKS
ROCKY MT-WILSO PTCLDY    68  64  87 CALM      30.08S
GREENVILLE     PTCLDY    70  63  78 CALM      30.08S
WASHINGTON     MOCLDY   N/A N/A N/A CALM      30.07S
ELIZABETH CITY CLOUDY    70  64  81 NW6       30.04F
MANTEO         CLOUDY    77  63  61 N5        30.05S
CAPE HATTERAS  CLOUDY    79  68  69 NW6       30.04S
$$

NCZ078-087-090-091-093-098-101-260700-
SOUTHEASTERN NORTH CAROLINA

CITY           SKY/WX    TMP DP  RH WIND       PRES   REMARKS
LUMBERTON      CLOUDY    75  68  78 N5        30.08S
GOLDSBORO      PTCLDY    71  68  90 CALM      30.06S
KINSTON        MOCLDY    69  67  94 CALM      30.08F
KENANSVILLE    MOCLDY    70  68  94 CALM      30.08F
NEW BERN       MOCLDY    73  70  90 CALM      30.07F
CHERRY POINT   CLOUDY    75  71  87 NW5       30.06
BEAUFORT       CLOUDY    78  75  90 NW8       30.05S
JACKSONVILLE   MOCLDY    73  73 100 SW3       30.06S
WILMINGTON     MOCLDY    74  72  93 CALM      30.07R
$$




USA.gov is the U.S. government's official web portal to all federal, state and local government web resources and services.